Location: Arbon
(43.0005°N, 0.7472°E)
Time: 09:28:42
(UTC+00:00)

Vanguard 2 Rocket - Pass Details

Date: 26 November 2020
Orbit: 554 x 3325 km, 32.9° (Epoch: 21 January)

Event Time Altitude Azimuth Distance (km) Brightness Sun altitude
Rises 11:34:30 0° 264° (W) 7,170 11.5 25.9°
Reaches altitude 10° 11:39:49 10° 261° (W) 5,933 11.2 25.9°
Maximum altitude 11:56:10 53° 192° (SSW) 2,584 10.5 25.9°
Drops below altitude 10° 12:05:57 10° 119° (ESE) 3,684 10.4 25.7°
Sets 12:08:28 0° 114° (ESE) 4,367 10.6 25.7°
